Regional Weather Roundup
Issued by NWS Sterling, VA

Home | Current Version | Previous Version | Graphics & Text | Print | Product List | Glossary On
Versions: 1 2 3 4 5 6 7 8 9 10 11 12 13 14 15 16 17 18 19 20 21 22 23 24 25 26 27 28 29 30 31 32 33 34 35 36 37 38 39 40 41 42 43 44 45 46 47 48 49 50
000
ASUS41 KLWX 251010
RWRLWX

REGIONAL WEATHER ROUNDUP
NATIONAL WEATHER SERVICE BALTIMORE MD/WASHINGTON DC
500 AM EST SUN JAN 25 2015

Note: "FAIR" indicates few or no clouds below 12,000 feet
with no significant weather and/or obstructions to visibility.
 TC=TEMPERATURE CELSIUS

 * =Non NWS site. Station does not report precipitation (e.g. rain,
    snow, etc.), thunder, or fog.

DCZ001-MDZ009-015-VAZ040>042-051-053>054-251100-
WASHINGTON METRO

CITY           SKY/WX    TMP DP  RH WIND       PRES   REMARKS
WASHINGTON NAT PTCLDY    38  27  64 S9        29.78R
DULLES         FAIR      35  26  69 S5        29.77R
ANDREWS AFB    MOCLDY    34  27  75 S8        29.76R WCI  28
FT BELVOIR     PTCLDY    36  27  68 SW5       29.79R
QUANTICO       MOCLDY    37  26  64 SW6       29.81R
COLLEGE PARK*  MOCLDY    37  28  70 S3        29.75R
LEESBURG*      CLOUDY    37  30  75 W8        29.77R
MANASSAS*      CLOUDY    37  28  70 S5        29.78R
GAITHERSBURG*  MOCLDY    36  27  69 W6        29.77R

$$

MDZ006>007-011-014-251100-
BALTIMORE METRO

CITY           SKY/WX    TMP DP  RH WIND       PRES   REMARKS
BWI AIRPORT    MOCLDY    34  27  75 SW5       29.74R
MD SCIENCE CTR   N/A     37  27  67 MISG      29.75R
MARTIN STATE   CLOUDY    37  32  81 S5        29.75R
ANNAPOLIS      CLOUDY    36  27  69 CALM      29.76R
FORT MEADE*    PTCLDY    32  30  93 SW6       29.77R

$$

MDZ012-015-019>023-251100-
MARYLAND EASTERN SHORE

CITY           SKY/WX    TMP DP  RH WIND       PRES   REMARKS
OCEAN CITY     CLEAR     34  28  79 W8        29.76R WCI  27
SALISBURY      CLEAR     35  29  78 W8        29.77R WCI  29
BAY BRIDGE AP*   N/A     37  28  70 SW6       29.76R
CAMBRIDGE*     CLEAR     37  30  75 W5        29.77R
EASTON*        PTCLDY    37  31  80 W6        29.80R

$$

MDZ017>025-251100-
SOUTHERN MARYLAND

CITY           SKY/WX    TMP DP  RH WIND       PRES   REMARKS
PATUXENT RIVER CLEAR     33  25  72 W7        29.80R
ST INIGOES     CLEAR     36  28  73 W6        29.80R
LEONARDTOWN*   CLEAR     34  28  80 SW6       29.81R

$$

MDZ003>005-251100-
NORTH CENTRAL MARYLAND

CITY           SKY/WX    TMP DP  RH WIND       PRES   REMARKS
FREDERICK*     CLOUDY    37  27  65 S7        29.77R
HAGERSTOWN APT CLOUDY    37  27  67 SW5       29.70S
WESTMINSTER*   CLOUDY    36  28  75 W9        29.70R WCI  29

$$

MDZ501>502-251100-
WESTERN MARYLAND

CITY           SKY/WX    TMP DP  RH WIND       PRES   REMARKS
OAKLAND*       FOG       28 N/A N/A W8        29.65F VSB 1/4 WCI  20
CUMBERLAND*    CLOUDY    37  30  75 W9        29.76F

$$

VAZ025>031-251100-
SHENANDOAH VALLEY

CITY           SKY/WX    TMP DP  RH WIND       PRES   REMARKS
WINCHESTER*    CLOUDY    37  25  60 SW6       29.75R
FRONT ROYAL*   CLOUDY    37  28  70 S3        29.75R
LURAY*         CLOUDY    39  30  70 SW9       29.76R
NEW MARKET*    CLOUDY    36  27  71 CALM      29.76R
STAUNTON*      CLOUDY    37  26  64 S7        29.79R
WAYNESBORO*    CLOUDY    32  26  77 SW5       29.78R

$$

WVZ021-048>050-054>055-251100-
EASTERN WEST VIRGINIA PANHANDLE

CITY           SKY/WX    TMP DP  RH WIND       PRES   REMARKS
MARTINSBURG    CLOUDY    38  27  64 S7        29.73R
PETERSBURG*    CLOUDY    37  27  65 CALM      29.76R

$$

VAZ036>039-050-251100-
CENTRAL FOOTHILLS

CITY           SKY/WX    TMP DP  RH WIND       PRES   REMARKS
CHARLOTTESVILL PTCLDY    37  25  61 SW5       29.79R
CULPEPER*      CLOUDY    36  28  75 CALM      29.79R
ORANGE*        CLOUDY    34  30  86 CALM      29.81R
GORDONSVILLE*  FAIR      28  26  91 CALM      29.80R
WARRENTON*     CLOUDY    38  32  80 S5        29.78R

$$

VAZ055>057-251100-
NORTH AND CENTRAL PIEDMONT

CITY           SKY/WX    TMP DP  RH WIND       PRES   REMARKS
FREDERICKSBRG* CLOUDY    36  29  78 SW7       29.81R
STAFFORD*      MOCLDY    33  31  93 CALM      29.84R

$$

NCZ024-NYZ072-PAZ021-071-VAZ022-071-251100-
OTHER REGIONAL OBSERVATIONS

CITY           SKY/WX    TMP DP  RH WIND       PRES   REMARKS
NEW YORK CITY  CLEAR     34  24  67 VRB6      29.62R
PHILADELPHIA   PTCLDY    34  27  75 SW10      29.70R WCI  26
PITTSBURGH     LGT SNOW  33  31  92 SW9       29.73S FOG     WCI  25
ROANOKE        CLOUDY    37  27  67 SW3       29.85R
RICHMOND       PTCLDY    34  27  75 W7        29.83R
RALEIGH        PTCLDY    31  25  78 W3        29.88R

$$

ANZ530>537-251100-
MARINE OBSERVATIONS

STATION/POSITION TIME  TEMP    WIND        PRES
                       AIR SEA DIR/SP/G
                 (UTC) (F)     (DEG/KT/KT) (MB)
THOMAS PT LIGHT  1000   37 37  220/ 11/ 12 1009.2R
BALT KEY BRIDGE  1000   37     210/  8/  9 1006.7R
COVE POINT       1000   36     270/  7/  9 1008.6R
LEWISETTA        1000   35 38  260/ 10/ 11 1009.4R
SOLOMONS ISLAND  1000      38                N/A
PINEY POINT      1000          270/ 10/ 11   N/A

$$




USA.gov is the U.S. government's official web portal to all federal, state and local government web resources and services.